Location: South Tamworth Observatory
(43.8246°N, 71.3026°W)
Time: 12:35:19
(UTC-04:00)

Amateur Radio Satellites - All Passes

Search period start: 01 April 2015 12:05
Search period end: 02 April 2015 12:05
Location: South Tamworth Observatory, 43.8246°N, 71.3026°W

Satellite Date Start Highest point End Downlink Frequencies (MHz)
Time Altitude Azimuth
VELOX 1 01 Apr 12:05:48 12:10:10 58° 287° (WNW) 12:14:29 145.980
CUBEBUG 2 01 Apr 12:09:50 12:12:15 14° 297° (WNW) 12:14:31 437.445
AISAT 01 Apr 12:11:59 12:16:15 49° 288° (WNW) 12:20:30 437.250
POPSAT HIP 1 01 Apr 12:14:32 12:17:00 15° 270° (W) 12:19:19 437.405
HUMSAT D 01 Apr 12:23:48 12:27:15 24° 292° (WNW) 12:30:39 437.325/437.525
NANOSAT C BR1 01 Apr 12:24:46 12:26:22 12° 272° (W) 12:27:45 145.865
50 SAT 01 Apr 12:32:42 12:36:06 25° 291° (WNW) 12:39:26 437.505
UKube-1 01 Apr 12:35:51 12:38:26 15° 297° (WNW) 12:40:51 .
YUBILEINY 01 Apr 12:45:10 12:52:56 38° 86° (E) 13:00:53 435.215
Gurwin Techsat 1B 01 Apr 12:46:35 12:48:50 13° 58° (ENE) 12:51:20 435.225
O/OREOS (USA 219) 01 Apr 12:50:04 12:54:22 40° 60° (ENE) 12:58:38 437.305
DX 1 01 Apr 12:51:51 12:52:52 11° 300° (WNW) 12:53:39 434.975-435.025
ESTCUBE 1 01 Apr 12:52:35 12:56:46 37° 290° (WNW) 13:00:53 437.505/2401.250
TISAT 1 01 Apr 13:06:18 13:10:29 67° 101° (ESE) 13:14:40 437.305
ITAMSAT 1 01 Apr 13:15:38 13:19:57 28° 65° (ENE) 13:24:22 435.822/435.867
PCSat 01 Apr 13:27:50 13:32:15 27° 110° (ESE) 13:36:47 145.827
SPROUT 01 Apr 13:28:48 13:33:01 57° 287° (WNW) 13:37:13 437.525
CUBEBUG 1 01 Apr 13:33:51 13:36:37 16° 296° (WNW) 13:39:14 437.445
Oscar 19 01 Apr 13:41:14 13:46:18 63° 259° (W) 13:51:25 437.125/150
SWISSCUBE 01 Apr 13:46:57 13:51:12 31° 96° (E) 13:55:27 437.505
BEESAT 01 Apr 13:49:20 13:53:33 31° 95° (E) 13:57:47 436.000
AIST 1 01 Apr 14:01:34 14:04:33 18° 69° (ENE) 14:07:38
JAS-2 01 Apr 14:14:02 14:18:29 18° 53° (NE) 14:23:24 435.910
HORYU 2 01 Apr 14:19:00 14:21:58 18° 64° (ENE) 14:25:05 437.375
Gurwin Techsat 1B 01 Apr 14:22:47 14:28:06 84° 75° (ENE) 14:33:28 435.225
O/OREOS (USA 219) 01 Apr 14:30:02 14:33:34 22° 257° (WSW) 14:36:57 437.305
ITUPSAT 1 01 Apr 14:37:59 14:42:50 89° 104° (ESE) 14:47:37 437.325
YUBILEINY 01 Apr 14:41:01 14:49:34 51° 287° (WNW) 14:58:08 435.215
KKS-1 01 Apr 14:41:20 14:44:32 20° 92° (E) 14:47:51 437.445
AO-7 01 Apr 14:42:31 14:49:56 39° 60° (ENE) 14:57:28 29.400- 29.500
TISAT 1 01 Apr 14:43:53 14:45:49 13° 298° (WNW) 14:47:34 437.305
ITAMSAT 1 01 Apr 14:54:23 14:59:18 41° 262° (W) 15:04:13 435.822/435.867
STARS 01 Apr 15:05:14 15:08:39 22° 93° (E) 15:12:10 437.465
PCSat 01 Apr 15:10:12 15:15:26 48° 307° (NW) 15:20:43 145.827
SWISSCUBE 01 Apr 15:24:49 15:29:02 30° 293° (WNW) 15:33:09 437.505
BEESAT 01 Apr 15:27:09 15:31:23 31° 292° (WNW) 15:35:32 436.000
AIST 1 01 Apr 15:38:25 15:42:28 39° 268° (W) 15:46:26
HORYU 2 01 Apr 15:54:00 15:58:18 49° 260° (W) 16:02:39 437.375
JAS-2 01 Apr 15:55:12 16:02:17 75° 73° (ENE) 16:10:04 435.910
Gurwin Techsat 1B 01 Apr 16:06:25 16:08:53 13° 274° (W) 16:11:03 435.225
KKS-1 01 Apr 16:17:11 16:21:24 42° 289° (WNW) 16:25:35 437.445
ITUPSAT 1 01 Apr 16:18:06 16:20:04 12° 301° (WNW) 16:21:50 437.325
AO-7 01 Apr 16:34:29 16:42:34 53° 259° (W) 16:50:38 29.400- 29.500
MOZHAYETS 4 01 Apr 16:40:24 16:44:02 23° 92° (E) 16:47:45
STARS 01 Apr 16:41:12 16:45:16 36° 290° (WNW) 16:49:17 437.465
YUBILEINY 01 Apr 16:47:15 16:49:16 11° 313° (NW) 16:50:37 435.215
BEESAT 2 01 Apr 16:47:37 16:49:48 14° 35° (NE) 16:52:04 435.950
PCSat 01 Apr 16:58:15 17:00:19 12° 330° (NNW) 17:02:14 145.827
SO-50 01 Apr 17:17:12 17:20:13 18° 111° (ESE) 17:23:27 436.795
BEESAT 3 01 Apr 17:19:46 17:23:15 26° 44° (NE) 17:26:44 437.485
AUBIESAT-1 01 Apr 17:39:27 17:43:13 23° 97° (E) 17:46:59 437.475
CUTE-I 01 Apr 17:40:31 17:45:38 48° 70° (ENE) 17:50:48 437.470
Cubesat XI-IV 01 Apr 17:41:44 17:46:53 50° 71° (ENE) 17:52:05 437.490
JAS-2 01 Apr 17:42:34 17:48:13 23° 274° (W) 17:53:57 435.910
RS-15 01 Apr 17:57:31 18:07:15 42° 110° (ESE) 18:17:20 29.354- 29.394
M-CUBED/EXP-1 PRIME 01 Apr 18:06:22 18:11:04 47° 103° (ESE) 18:15:37 437.505
MOZHAYETS 4 01 Apr 18:17:05 18:21:26 39° 290° (WNW) 18:25:43
AIST 2 01 Apr 18:19:01 18:22:49 31° 45° (NE) 18:26:36 435.215
BEESAT 2 01 Apr 18:24:28 18:28:38 85° 56° (NE) 18:32:44 435.950
HO-68 01 Apr 18:36:53 18:40:50 16° 51° (NE) 18:45:05 435.675
CUBESAT XI-V 01 Apr 18:37:02 18:41:02 29° 94° (E) 18:45:04 437.345
SO-50 01 Apr 18:55:42 19:00:19 61° 309° (NW) 19:05:07 436.795
BEESAT 3 01 Apr 18:57:36 19:01:25 37° 243° (WSW) 19:05:09 437.485
GONETS M04 01 Apr 18:58:44 19:07:07 58° 91° (E) 19:15:40
STRAND 1 01 Apr 19:11:09 19:15:45 34° 96° (E) 19:20:23 437.568
AUBIESAT-1 01 Apr 19:13:36 19:18:14 45° 295° (WNW) 19:22:41 437.475
BRITE-PL 01 Apr 19:17:30 19:20:50 21° 68° (ENE) 19:24:07 437.365/2234.400
CUTE-I 01 Apr 19:21:42 19:26:01 24° 268° (W) 19:30:13 437.470
Cubesat XI-IV 01 Apr 19:23:03 19:27:19 23° 268° (W) 19:31:26 437.490
CANX-2 01 Apr 19:31:55 19:34:38 17° 65° (ENE) 19:37:30 2200.000
PRISM 01 Apr 19:32:01 19:36:13 83° 103° (ESE) 19:40:21 437.425
M-CUBED/EXP-1 PRIME 01 Apr 19:41:44 19:45:38 24° 300° (WNW) 19:49:24 437.505
CUTE 1.7 + AOD 2 01 Apr 19:44:48 19:47:57 21° 67° (ENE) 19:51:14 437.475
GOMX 1 01 Apr 19:45:42 19:49:16 26° 69° (ENE) 19:52:47 467.674
AAUSAT CUBESAT 2 01 Apr 19:56:03 19:58:40 17° 65° (ENE) 20:01:27 437.432
AIST 2 01 Apr 19:57:37 20:01:25 31° 244° (WSW) 20:05:07 435.215
SEEDS 01 Apr 20:08:03 20:11:44 30° 69° (ENE) 20:15:30 437.485
RS-15 01 Apr 20:08:26 20:19:14 62° 313° (NW) 20:30:19 29.354- 29.394
CINEMA 3 01 Apr 20:08:54 20:11:21 16° 65° (ENE) 20:13:58 145.822/145.860
CUBESAT XI-V 01 Apr 20:14:24 20:18:29 30° 292° (WNW) 20:22:28 437.345
CUSAT 1 01 Apr 20:17:04 20:19:18 24° 96° (E) 20:21:32 437.405
HO-68 01 Apr 20:20:22 20:27:29 73° 71° (ENE) 20:34:41 435.675
COMPASS 1 01 Apr 20:24:45 20:28:37 37° 71° (ENE) 20:32:32 437.405
DX 1 01 Apr 20:37:38 20:38:18 10° 60° (ENE) 20:39:11 434.975-435.025
SO-50 01 Apr 20:39:23 20:41:56 14° 330° (NNW) 20:44:24 436.795
Oscar 11 01 Apr 20:47:18 20:51:00 29° 69° (ENE) 20:54:46 145.826/435.025
DELFI C3 01 Apr 20:47:55 20:51:02 22° 67° (ENE) 20:54:14 145.870
STRAND 1 01 Apr 20:50:25 20:54:56 32° 293° (WNW) 20:59:22 437.568
DOVE 4 01 Apr 20:54:11 20:58:28 88° 267° (W) 21:02:38 437.250
BRITE-PL 01 Apr 20:54:56 20:59:14 38° 262° (W) 21:03:17 437.365/2234.400
GONETS M04 01 Apr 20:56:43 21:04:30 34° 293° (WNW) 21:12:11
FUNcube-1 01 Apr 21:05:39 21:08:52 23° 67° (ENE) 21:12:11 145.935
CANX-2 01 Apr 21:06:09 21:10:15 47° 261° (W) 21:14:24 2200.000
PRISM 01 Apr 21:10:12 21:11:07 10° 299° (WNW) 21:11:49 437.425
UWE-3 01 Apr 21:18:56 21:22:45 38° 71° (ENE) 21:26:40 435.000/436.395/437.385
ZACube-1 01 Apr 21:19:27 21:23:06 31° 70° (ENE) 21:26:52 437.345
CUTE 1.7 + AOD 2 01 Apr 21:19:43 21:23:41 37° 263° (W) 21:27:40 437.475
GOMX 1 01 Apr 21:23:32 21:27:23 29° 264° (W) 21:31:04 467.674
DANDE 01 Apr 21:28:52 21:31:22 28° 284° (WNW) 21:33:42 436.750
AAUSAT CUBESAT 2 01 Apr 21:29:57 21:33:59 47° 261° (W) 21:38:05 437.432
VELOX 1 01 Apr 21:30:08 21:32:50 16° 64° (ENE) 21:35:40 145.980
CUBEBUG 2 01 Apr 21:31:25 21:35:31 64° 75° (ENE) 21:39:40 437.445
AISAT 01 Apr 21:36:01 21:39:05 19° 65° (ENE) 21:42:17 437.250
HUMSAT D 01 Apr 21:41:20 21:44:49 28° 69° (ENE) 21:48:23 437.325/437.525
SEEDS 01 Apr 21:44:04 21:47:35 25° 267° (W) 21:51:04 437.485
CINEMA 3 01 Apr 21:44:13 21:48:15 48° 261° (W) 21:52:18 145.822/145.860
50 SAT 01 Apr 21:45:43 21:48:36 20° 67° (ENE) 21:51:34 437.505
UKube-1 01 Apr 21:54:28 21:58:44 59° 73° (ENE) 22:03:00 .
COMPASS 1 01 Apr 22:01:20 22:04:29 20° 268° (W) 22:07:33 437.405
ISS 01 Apr 22:03:21 22:06:36 73° 146° (SE) 22:09:51 145.825
DX 1 01 Apr 22:09:34 22:13:56 90° 272° (W) 22:18:19 434.975-435.025
HO-68 01 Apr 22:10:28 22:15:59 22° 270° (W) 22:21:16 435.675
PCSat 01 Apr 22:13:31 22:18:21 32° 47° (NE) 22:23:13 145.827
ESTCUBE 1 01 Apr 22:17:16 22:21:00 26° 67° (ENE) 22:24:48 437.505/2401.250
DELFI C3 01 Apr 22:22:20 22:26:03 33° 264° (W) 22:29:46 145.870
Oscar 11 01 Apr 22:23:26 22:27:11 27° 266° (W) 22:30:53 145.826/435.025
ANTELSAT 01 Apr 22:24:01 22:27:07 18° 91° (E) 22:30:24 437.575/2403.000
RS-15 01 Apr 22:25:20 22:34:30 28° 344° (NNW) 22:43:50 29.354- 29.394
POLYITAN 1 01 Apr 22:39:15 22:40:44 12° 88° (E) 22:42:28 437.675
FUNcube-1 01 Apr 22:41:19 22:45:04 32° 264° (W) 22:48:50 145.935
SPROUT 01 Apr 22:50:36 22:52:41 14° 63° (ENE) 22:54:55 437.525
YUBILEINY 01 Apr 22:53:38 22:59:36 20° 58° (ENE) 23:05:54 435.215
CUBEBUG 1 01 Apr 22:53:41 22:57:58 52° 73° (ENE) 23:02:15 437.445
ZACube-1 01 Apr 22:56:15 22:59:35 22° 267° (W) 23:02:51 437.345
UWE-3 01 Apr 22:56:32 22:59:32 19° 269° (W) 23:02:26 435.000/436.395/437.385
VELOX 1 01 Apr 23:04:40 23:09:02 55° 260° (W) 23:13:24 145.980
AISAT 01 Apr 23:11:09 23:15:25 46° 261° (W) 23:19:41 437.250
CUBEBUG 2 01 Apr 23:11:28 23:12:48 11° 273° (W) 23:13:53 437.445
DUCHIFAT 1 01 Apr 23:12:11 23:15:43 26° 94° (E) 23:19:18 145.980
QB50P1 01 Apr 23:12:32 23:16:07 27° 95° (E) 23:19:46 145.935-145.965
HUMSAT D 01 Apr 23:17:08 23:20:35 25° 266° (W) 23:24:02 437.325/437.525
UNISAT 6 01 Apr 23:18:51 23:23:26 64° 100° (E) 23:28:05 437.425
50 SAT 01 Apr 23:19:45 23:23:20 33° 264° (W) 23:26:55 437.505
TIGRISAT 01 Apr 23:27:17 23:31:54 76° 102° (ESE) 23:36:34 435.000
QB50P2 01 Apr 23:28:25 23:32:27 40° 98° (E) 23:36:29 145.880/145.840
UKube-1 01 Apr 23:33:03 23:35:20 14° 271° (W) 23:37:25 .
BUGSAT 1 01 Apr 23:35:36 23:39:15 32° 97° (E) 23:42:55 437.445
ISS 01 Apr 23:40:23 23:43:14 27° 344° (NNW) 23:46:05 145.825
ESTCUBE 1 01 Apr 23:53:35 23:57:46 34° 264° (W) 00:01:54 437.505/2401.250
POPSAT HIP 1 01 Apr 23:56:11 00:00:26 82° 102° (ESE) 00:04:41 437.405
PCSat 01 Apr 23:56:48 00:01:56 44° 247° (WSW) 00:07:01 145.827
TISAT 1 01 Apr 23:59:44 00:03:52 59° 74° (ENE) 00:08:02 437.305
ANTELSAT 01 Apr 23:59:45 00:04:14 50° 288° (WNW) 00:08:45 437.575/2403.000
NANOSAT C BR1 02 Apr 00:05:11 00:09:26 80° 284° (WNW) 00:13:40 145.865
ITUPSAT 1 02 Apr 00:10:42 00:13:28 16° 62° (ENE) 00:16:23 437.325
POLYITAN 1 02 Apr 00:12:57 00:17:11 65° 285° (WNW) 00:21:24 437.675
SPROUT 02 Apr 00:24:04 00:28:19 64° 258° (WSW) 00:32:35 437.525
CUBEBUG 1 02 Apr 00:31:58 00:34:42 16° 270° (W) 00:37:17 437.445
RS-15 02 Apr 00:42:11 00:51:32 29° 18° (NNE) 01:01:20 29.354- 29.394
DUCHIFAT 1 02 Apr 00:47:54 00:51:34 29° 291° (WNW) 00:55:11 145.980
QB50P1 02 Apr 00:48:20 00:51:59 28° 292° (WNW) 00:55:35 145.935-145.965
YUBILEINY 02 Apr 00:49:08 00:58:01 87° 82° (E) 01:06:48 435.215
SWISSCUBE 02 Apr 00:54:44 00:59:15 42° 70° (ENE) 01:03:48 437.505
UNISAT 6 02 Apr 00:56:59 00:59:48 16° 297° (WNW) 01:02:29 437.425
BEESAT 02 Apr 00:57:03 01:01:31 41° 70° (ENE) 01:06:03 436.000
QB50P2 02 Apr 01:05:00 01:08:07 20° 294° (WNW) 01:11:08 145.880/145.840
TIGRISAT 02 Apr 01:05:50 01:08:09 13° 298° (WNW) 01:10:17 435.000
BUGSAT 1 02 Apr 01:11:28 01:14:36 21° 293° (WNW) 01:17:38 437.445
ISS 02 Apr 01:17:49 01:20:21 20° 4° (N) 01:22:52 145.825
POPSAT HIP 1 02 Apr 01:34:36 01:35:46 11° 299° (WNW) 01:36:44 437.405
TISAT 1 02 Apr 01:38:10 01:40:08 13° 271° (W) 01:41:55 437.305
KKS-1 02 Apr 01:41:04 01:44:26 22° 66° (ENE) 01:47:54 437.445
SO-50 02 Apr 01:45:47 01:50:05 29° 42° (NE) 01:54:25 436.795
ITUPSAT 1 02 Apr 01:46:04 01:50:52 69° 258° (WSW) 01:55:42 437.325
Oscar 19 02 Apr 01:51:26 01:56:18 41° 97° (E) 02:01:13 437.125/150
STARS 02 Apr 02:03:45 02:07:13 24° 67° (ENE) 02:10:47 437.465
SWISSCUBE 02 Apr 02:33:30 02:37:19 22° 267° (W) 02:41:03 437.505
AIST 1 02 Apr 02:35:29 02:35:56 10° 84° (E) 02:36:40
BEESAT 02 Apr 02:35:43 02:39:33 23° 267° (W) 02:43:19 436.000
Gurwin Techsat 1B 02 Apr 02:38:01 02:42:40 30° 94° (E) 02:47:19 435.225
YUBILEINY 02 Apr 02:47:42 02:53:48 20° 281° (W) 02:59:28 435.215
ISS 02 Apr 02:54:12 02:57:19 43° 24° (NNE) 03:00:26 145.825
RS-15 02 Apr 02:55:26 03:06:46 64° 48° (NE) 03:18:39 29.354- 29.394
O/OREOS (USA 219) 02 Apr 03:03:39 03:07:49 35° 106° (ESE) 03:12:02 437.305
ITAMSAT 1 02 Apr 03:05:27 03:10:36 64° 101° (E) 03:15:44 435.822/435.867
JAS-2 02 Apr 03:08:04 03:09:32 11° 77° (ENE) 03:11:34 435.910
KKS-1 02 Apr 03:16:44 03:20:53 38° 262° (W) 03:25:02 437.445
SO-50 02 Apr 03:26:06 03:30:52 48° 241° (WSW) 03:35:34 436.795
Oscar 19 02 Apr 03:31:09 03:35:30 27° 295° (WNW) 03:39:46 437.125/150
STARS 02 Apr 03:39:34 03:43:34 34° 264° (W) 03:47:33 437.465
MOZHAYETS 4 02 Apr 03:43:45 03:47:32 26° 67° (ENE) 03:51:24
HORYU 2 02 Apr 03:44:09 03:48:02 28° 95° (E) 03:51:57 437.375
AIST 1 02 Apr 04:08:38 04:13:02 74° 279° (W) 04:17:27
VERMONT LUNAR 02 Apr 04:09:04 04:11:46 23° 159° (SSE) 04:14:29 437.305
Gurwin Techsat 1B 02 Apr 04:17:50 04:22:44 37° 292° (WNW) 04:27:33 435.225
AUBIESAT-1 02 Apr 04:28:32 04:32:20 33° 63° (ENE) 04:36:27 437.475
ISS 02 Apr 04:30:47 04:33:38 28° 222° (SW) 04:36:27 145.825
AO-7 02 Apr 04:34:07 04:42:08 51° 100° (E) 04:50:10 29.400- 29.500
O/OREOS (USA 219) 02 Apr 04:43:24 04:47:20 27° 305° (NW) 04:51:14 437.305
ITAMSAT 1 02 Apr 04:46:05 04:49:40 19° 298° (WNW) 04:53:06 435.822/435.867
JAS-2 02 Apr 04:48:49 04:56:28 63° 99° (E) 05:03:25 435.910
M-CUBED/EXP-1 PRIME 02 Apr 04:56:04 05:00:13 71° 69° (ENE) 05:04:46 437.505
GONETS M04 02 Apr 05:07:22 05:14:53 31° 65° (ENE) 05:22:35
RS-15 02 Apr 05:08:18 05:18:55 43° 250° (WSW) 05:29:42 29.354- 29.394
MOZHAYETS 4 02 Apr 05:20:22 05:24:38 35° 264° (W) 05:28:54
HORYU 2 02 Apr 05:20:42 05:24:41 30° 292° (WNW) 05:28:35 437.375
PHONESAT 2.4 02 Apr 05:22:52 05:25:59 30° 162° (SSE) 05:29:07 2401.200-2431.200
CUBESAT XI-V 02 Apr 05:41:39 05:45:52 34° 69° (ENE) 05:50:07 437.345
VERMONT LUNAR 02 Apr 05:45:51 05:49:04 45° 175° (S) 05:52:17 437.305
CUTE-I 02 Apr 05:57:24 06:00:39 17° 89° (E) 06:04:07 437.470
Cubesat XI-IV 02 Apr 05:58:43 06:02:07 18° 89° (E) 06:05:42 437.490
AUBIESAT-1 02 Apr 06:03:41 06:07:14 26° 262° (W) 06:10:58 437.475
DANDE 02 Apr 06:22:20 06:24:51 15° 71° (ENE) 06:27:58 436.750
PRISM 02 Apr 06:23:17 06:27:30 73° 75° (ENE) 06:31:44 437.425
AO-7 02 Apr 06:27:14 06:34:50 41° 300° (WNW) 06:42:20 29.400- 29.500
STRAND 1 02 Apr 06:28:10 06:33:11 56° 72° (ENE) 06:38:15 437.568
M-CUBED/EXP-1 PRIME 02 Apr 06:34:06 06:35:48 12° 269° (W) 06:37:20 437.505
JAS-2 02 Apr 06:34:27 06:41:00 31° 299° (WNW) 06:46:58 435.910
CUSAT 1 02 Apr 06:49:05 06:53:19 37° 76° (ENE) 06:58:52 437.405
PHONESAT 2.4 02 Apr 07:00:35 07:04:00 49° 179° (S) 07:07:26 2401.200-2431.200
GONETS M04 02 Apr 07:03:44 07:12:27 64° 267° (W) 07:21:07
CUBESAT XI-V 02 Apr 07:19:19 07:23:22 27° 266° (W) 07:27:19 437.345
VERMONT LUNAR 02 Apr 07:23:21 07:26:29 37° 192° (SSW) 07:29:37 437.305
CUTE-I 02 Apr 07:36:01 07:41:19 66° 288° (WNW) 07:46:34 437.470
Cubesat XI-IV 02 Apr 07:37:29 07:42:46 64° 288° (WNW) 07:48:01 437.490
HO-68 02 Apr 07:50:24 07:51:59 11° 82° (E) 07:54:09 435.675
PRISM 02 Apr 08:02:38 08:03:34 10° 273° (W) 08:04:14 437.425
DANDE 02 Apr 08:03:54 08:08:12 61° 261° (W) 08:13:59 436.750
STRAND 1 02 Apr 08:09:08 08:12:49 19° 270° (W) 08:16:20 437.568
BEESAT 2 02 Apr 08:22:41 08:23:56 11° 109° (ESE) 08:25:23 435.950
AO-7 02 Apr 08:24:08 08:25:31 10° 322° (NW) 08:26:29 29.400- 29.500
CUSAT 1 02 Apr 08:32:00 08:36:05 28° 264° (W) 08:41:05 437.405
PHONESAT 2.4 02 Apr 08:38:50 08:42:03 33° 196° (SSW) 08:45:16 2401.200-2431.200
CANX-2 02 Apr 08:50:26 08:54:05 26° 94° (E) 08:57:45 2200.000
DOVE 4 02 Apr 08:51:51 08:55:13 21° 93° (E) 08:58:49 437.250
BEESAT 3 02 Apr 08:52:14 08:55:42 27° 115° (ESE) 08:59:16 437.485
BRITE-PL 02 Apr 08:57:19 09:01:29 52° 100° (E) 09:05:53 437.365/2234.400
VERMONT LUNAR 02 Apr 09:01:44 09:03:39 14° 207° (SSW) 09:05:32 437.305
CUTE 1.7 + AOD 2 02 Apr 09:03:32 09:07:27 33° 96° (E) 09:11:22 437.475
GONETS M04 02 Apr 09:04:35 09:07:42 12° 286° (WNW) 09:10:05
AAUSAT CUBESAT 2 02 Apr 09:12:08 09:15:35 24° 93° (E) 09:19:04 437.432
CUTE-I 02 Apr 09:19:45 09:20:30 10° 305° (NW) 09:20:58 437.470
GOMX 1 02 Apr 09:22:30 09:26:49 64° 101° (E) 09:31:23 467.674
CUBEBUG 2 02 Apr 09:22:31 09:24:32 13° 88° (E) 09:26:48 437.445
ANTELSAT 02 Apr 09:25:05 09:27:58 18° 64° (ENE) 09:31:02 437.575/2403.000
SEEDS 02 Apr 09:26:19 09:30:29 48° 99° (E) 09:34:38 437.485
HO-68 02 Apr 09:34:05 09:41:17 67° 103° (ESE) 09:48:26 435.675
POLYITAN 1 02 Apr 09:34:28 09:35:59 12° 62° (ENE) 09:37:41 437.675
CINEMA 3 02 Apr 09:37:09 09:41:13 33° 96° (E) 09:45:28 145.822/145.860
COMPASS 1 02 Apr 09:42:14 09:46:28 60° 100° (E) 09:50:40 437.405
AIST 2 02 Apr 09:56:25 10:00:21 38° 117° (ESE) 10:04:22 435.215
BEESAT 2 02 Apr 09:57:25 10:01:32 75° 305° (NW) 10:05:43 435.950
DX 1 02 Apr 09:58:13 10:00:23 14° 89° (E) 10:02:45 434.975-435.025
DELFI C3 02 Apr 10:00:38 10:04:13 29° 95° (E) 10:07:49 145.870
DUCHIFAT 1 02 Apr 10:06:19 10:09:40 24° 67° (ENE) 10:13:06 145.980
QB50P1 02 Apr 10:06:56 10:10:21 25° 68° (ENE) 10:13:51 145.935-145.965
Oscar 11 02 Apr 10:08:42 10:12:57 47° 98° (E) 10:17:10 145.826/435.025
PHONESAT 2.4 02 Apr 10:18:36 10:19:47 11° 211° (SSW) 10:20:54 2401.200-2431.200
UNISAT 6 02 Apr 10:19:20 10:23:35 65° 73° (ENE) 10:27:55 437.425
QB50P2 02 Apr 10:22:47 10:26:39 37° 71° (ENE) 10:30:34 145.880/145.840
CANX-2 02 Apr 10:26:14 10:30:02 30° 291° (WNW) 10:33:45 2200.000
BUGSAT 1 02 Apr 10:27:12 10:30:44 29° 69° (ENE) 10:34:18 437.445
TIGRISAT 02 Apr 10:27:31 10:31:47 77° 76° (ENE) 10:36:08 435.000
FUNcube-1 02 Apr 10:27:41 10:31:51 40° 97° (E) 10:36:07 145.935
DOVE 4 02 Apr 10:29:03 10:33:09 39° 288° (WNW) 10:37:25 437.250
BEESAT 3 02 Apr 10:29:56 10:33:41 33° 313° (NW) 10:37:28 437.485
BRITE-PL 02 Apr 10:37:08 10:39:45 16° 295° (WNW) 10:42:17 437.365/2234.400
CUTE 1.7 + AOD 2 02 Apr 10:39:43 10:43:15 24° 292° (WNW) 10:46:41 437.475
ZACube-1 02 Apr 10:42:08 10:46:30 59° 100° (E) 10:50:59 437.345
UWE-3 02 Apr 10:43:08 10:47:36 75° 102° (ESE) 10:52:11 435.000/436.395/437.385
AAUSAT CUBESAT 2 02 Apr 10:47:29 10:51:15 31° 290° (WNW) 10:54:58 437.432
POPSAT HIP 1 02 Apr 10:50:12 10:54:23 72° 75° (ENE) 10:58:36 437.405
VELOX 1 02 Apr 10:54:22 10:57:57 24° 94° (E) 11:01:36 145.980
50 SAT 02 Apr 10:56:06 10:59:30 26° 95° (E) 11:02:59 437.505
CUBEBUG 2 02 Apr 10:57:15 11:01:42 66° 285° (WNW) 11:06:17 437.445
NANOSAT C BR1 02 Apr 10:58:56 11:03:09 90° 115° (ESE) 11:07:23 145.865
HUMSAT D 02 Apr 10:59:04 11:03:11 44° 98° (E) 11:07:19 437.325/437.525
ANTELSAT 02 Apr 11:00:20 11:04:28 45° 262° (W) 11:08:41 437.575/2403.000
AISAT 02 Apr 11:00:46 11:04:37 29° 95° (E) 11:08:31 437.250
GOMX 1 02 Apr 11:02:18 11:04:36 14° 296° (WNW) 11:06:47 467.674
SEEDS 02 Apr 11:03:06 11:05:58 17° 295° (WNW) 11:08:41 437.485
POLYITAN 1 02 Apr 11:07:11 11:11:24 72° 258° (WSW) 11:15:37 437.675
CINEMA 3 02 Apr 11:14:35 11:18:20 26° 291° (WNW) 11:22:09 145.822/145.860
UKube-1 02 Apr 11:16:41 11:21:02 89° 285° (WNW) 11:25:21 .
COMPASS 1 02 Apr 11:19:23 11:21:43 14° 296° (WNW) 11:23:55 437.405
HO-68 02 Apr 11:22:37 11:28:32 27° 302° (WNW) 11:34:14 435.675
DX 1 02 Apr 11:32:48 11:37:06 57° 287° (WNW) 11:41:20 434.975-435.025
O/OREOS (USA 219) 02 Apr 11:34:32 11:36:16 12° 46° (NE) 11:38:11 437.305
AIST 2 02 Apr 11:35:21 11:39:03 27° 316° (NW) 11:42:45 435.215
DELFI C3 02 Apr 11:35:55 11:39:18 24° 292° (WNW) 11:42:36 145.870
BEESAT 2 02 Apr 11:38:25 11:40:28 13° 326° (NW) 11:42:24 435.950
DUCHIFAT 1 02 Apr 11:41:37 11:45:24 31° 264° (W) 11:49:09 145.980
QB50P1 02 Apr 11:42:25 11:46:09 30° 264° (W) 11:49:52 145.935-145.965
ESTCUBE 1 02 Apr 11:44:37 11:48:57 44° 98° (E) 11:53:15 437.505/2401.250
Oscar 11 02 Apr 11:45:47 11:48:49 18° 295° (WNW) 11:51:43 145.826/435.025
UNISAT 6 02 Apr 11:59:08 12:00:57 12° 273° (W) 12:02:32 437.425
